{"data":{"norad_id":55930,"intl_designator":"2023-037S","name":"STARLINK-5896","alt_names":[],"object_type":"PAYLOAD","status":"ACTIVE","operator":null,"country":"US","launch_date":"2023-03-17","launch_site_code":"AFWTR","launch_vehicle":null,"mission":null,"orbit_class":"UNKNOWN","rcs_meters":null,"size_class":null,"mass_kg":null,"dimensions":null,"purposes":["comms"],"wikipedia_slug":null,"has_3d_model":false,"image_url":null,"decayed_at":null,"tle_current":{"epoch":"2026-09-20T22:00:03.000096Z","epoch_age_seconds":70225,"freshness":"FRESH","line1":"1 55930U 23037S   26263.91670139  .00028159  00000+0  21639-2 0  9999","line2":"2 55930  70.0009 152.1492 0004529 301.4134 113.7790 15.01629999  5677","mean_motion":15.01629999,"eccentricity":0.0004529,"inclination_deg":70.0009,"raan_deg":152.1492,"arg_perigee_deg":301.4134,"mean_anomaly_deg":113.779,"bstar":0.0021639,"rev_number":567,"period_min":95.895793301876,"perigee_km":558.72648063422,"apogee_km":565.01273862122,"semimajor_km":6940.0066096277,"source":"CELESTRAK","updated_at":"2026-09-21T09:00:33.325217Z"}}}